Location: Bern�tre
(50.1974°N, 2.0915°E)
Time: 10:37:28
(UTC+00:00)

Daily predictions for brighter satellites

Satellite Brightness Start Highest point End
(mag) Time Altitude Azimuth Time Altitude Azimuth Time Altitude Azimuth
NOSS 2-3 (D) 4.4 18:23:25 10° WSW 18:27:43 59° NW 18:33:00 10° NE
Cosmos 1603 3.8 18:22:33 10° NNW 18:28:16 89° WSW 18:33:55 10° SSE
YAOGAN 1 2.7 18:24:45 10° SSE 18:29:05 86° WSW 18:33:27 10° NNW
HJ-1C 3.5 18:28:17 10° SSE 18:31:29 53° ENE 18:34:44 10° N
Cosmos 1898 Rocket 3.5 18:26:50 10° S 18:31:53 58° ESE 18:37:00 10° NNE
Cosmos 1867 3.7 18:26:45 10° NW 18:32:11 61° NE 18:37:36 10° SE
Timation 1 Rocket 4.4 18:26:24 10° SSW 18:32:22 84° ESE 18:38:23 10° NNE
Okean 2 3.4 18:29:24 10° N 18:33:36 83° E 18:37:46 10° SSE
CSL-04 Rocket 3.7 18:29:03 10° SSE 18:34:28 77° ENE 18:40:00 10° NNW
USA 234 4.4 18:37:44 10° ENE 18:42:22 20° SE 18:46:58 10° S
CREW DRAGON DEMO-1 DEB 3.0 18:42:03 10° W 18:45:04 67° N 18:47:59 11° ENE
USA 102 4.1 18:39:46 10° SSE 18:46:06 90° ENE 18:49:09 10° NNW
Cosmos 1782 Rocket 3.5 18:45:04 10° S 18:49:27 72° E 18:53:55 10° NNE
Cosmos 807 4.4 18:46:28 10° S 18:49:34 63° E 18:53:15 10° NNE
Cosmos 1975 2.9 18:46:26 10° S 18:50:31 89° W 18:54:37 10° N
Cosmos 2233 Rocket 4.1 18:44:27 10° S 18:50:42 84° W 18:56:57 10° N
CZ-4 R/B 2.8 18:47:17 10° S 18:51:19 43° W 18:55:21 10° NNW
Cosmos 1025 Rocket 3.6 18:47:15 10° N 18:51:20 37° ENE 18:55:24 10° SE
NOSS 3-2 (C) 4.4 18:44:43 10° NW 18:51:36 48° NNE 18:58:44 13° ESE
Cosmos 1908 Rocket 4.1 18:47:23 10° SSW 18:51:42 64° WNW 18:56:05 10° N
USA 186 2.4 18:49:11 10° SE 18:52:04 35° ENE 18:55:04 10° N
Meteor 2-11 Rocket 4.5 18:47:08 10° S 18:53:18 85° E 18:59:30 10° N
Nadezhda 4 Rocket 4.4 18:52:12 10° N 18:58:00 42° ENE 19:03:46 10° SE
Cosmos 2082 Rocket 4.3 18:58:09 10° N 19:00:30 12° NNE 19:02:52 10° NE
Cosmos 1544 4.5 18:57:53 10° SSW 19:01:24 43° WNW 19:04:55 10° N
Cosmos 1937 Rocket 3.4 18:56:19 10° SSW 19:01:33 75° ESE 19:06:47 10° NNE
NOSS 3-1 (A) 4.4 18:56:12 10° WSW 19:01:44 47° NNW 19:08:18 10° NE
OBJECT-B 2.3 19:01:22 17° E 19:02:36 21° ENE 19:05:08 10° NNE
Cosmos 2034 Rocket 4.5 18:57:33 10° SSE 19:03:21 39° E 19:09:09 10° NNE
MOS 1 Rocket 3.1 18:58:52 10° NNE 19:03:23 65° E 19:07:41 10° S
Cosmos 1842 4.4 19:02:29 10° NNW 19:06:12 46° W 19:09:54 10° SSW
FREGAT/IRIS 3.0 19:05:31 22° ESE 19:06:38 32° ENE 19:09:01 10° N
Cosmos 1674 3.8 19:04:49 10° NNE 19:08:05 25° ENE 19:09:42 19° ESE
Cosmos 1975 Rocket 3.6 19:06:55 10° NNW 19:11:13 61° W 19:15:28 10° S
NOSS 8 (H) 4.0 19:10:20 10° SW 19:13:27 88° SE 19:16:30 10° NE
In-Cosmos 22 4.0 19:09:55 10° N 19:15:13 67° ENE 19:20:31 10° SSE
NOSS 2-2 (E) 3.1 19:13:48 10° SSW 19:17:15 56° SE 19:21:12 10° NE
Cosmos 1707 2.7 19:16:55 10° NNW 19:20:46 83° W 19:24:36 10° S
Resurs 01 Rocket 2.7 19:19:16 21° E 19:21:02 27° ENE 19:24:48 10° N
H-2A R/B 2.7 19:16:33 10° S 19:21:24 54° W 19:26:24 10° NNW
ARGOS 3.4 19:17:13 10° S 19:22:33 70° WSW 19:27:57 10° NNW
ATLAS 2AS CENTAUR R/B 4.4 19:24:48 15° E 19:24:48 15° E 19:27:19 10° ENE
CZ-2C R/B 2.8 19:18:26 10° NNE 19:23:50 52° E 19:29:17 10° S
SJ-6B 2.6 19:21:47 15° SSE 19:24:48 69° ENE 19:28:34 10° N
NOSS 2-2 (D) 3.2 19:22:17 10° SSW 19:25:42 53° SE 19:29:34 10° NE
KORONAS-FOTON 4.5 19:22:08 10° N 19:25:49 37° ENE 19:27:14 27° ESE
Sich 1 Rocket 3.7 19:23:11 10° SSW 19:27:41 79° W 19:32:15 10° N
MOS 1 4.3 19:23:42 10° SSE 19:29:24 79° ENE 19:35:07 10° NNW
Cosmos 1048 Rocket 4.0 19:25:13 10° NNW 19:30:31 67° ENE 19:34:10 20° SE
ATLAS CENTAUR R/B 3.9 19:29:56 10° WNW 19:32:05 14° NNW 19:34:11 10° N
CENTAUR R/B 3.3 19:24:51 10° NW 19:32:38 65° NE 19:38:33 22° ESE
Cosmos 1844 4.3 19:29:55 10° SSE 19:34:52 31° ESE 19:39:48 10° NE
ARIANE 5 R/B 3.8 19:37:42 23° ENE 19:38:21 24° ENE 19:41:51 10° N
ATLAS 3B R/B 3.6 19:32:19 10° NW 19:38:30 36° NNE 19:42:49 19° E
SL-08 RB Rocket 4.1 19:34:24 10° S 19:38:57 64° WSW 19:43:31 10° NNW
Cosmos 2263 Rocket 2.9 19:34:03 10° SW 19:39:31 55° NW 19:45:03 10° NNE
USA 238 DEB 3.8 19:33:26 10° NW 19:40:38 86° NE 19:45:38 23° SE
USA 238 3.8 19:33:32 10° NW 19:40:45 85° NE 19:45:43 23° SE
Cosmos 2285 Rocket 4.5 19:35:38 10° SSE 19:41:17 36° E 19:47:00 10° NE
ISS -2.9 19:38:34 10° SW 19:41:14 33° SSE 19:41:14 33° SSE
Abrixas rocket 1.9 19:39:42 10° WSW 19:42:29 59° S 19:42:31 59° S
SJ 16-02 4.1 19:40:03 10° WSW 19:43:25 21° NW 19:46:48 10° N
Cosmos 1844 Rocket 2.9 19:41:25 10° S 19:46:42 46° ESE 19:52:01 10° NE
Okean 2 Rocket 3.2 19:43:19 10° SSW 19:47:49 76° W 19:52:19 10° N
Spot 2 Rocket 4.5 19:48:07 26° E 19:49:06 28° ENE 19:53:21 10° N
Cosmos 1464 Rocket 4.1 19:45:24 10° SSW 19:51:31 76° W 19:57:44 10° N
Lacrosse 5 rocket 2.8 19:47:56 10° W 19:51:59 37° N 19:55:13 16° NE
Okean 1 Rocket 3.4 19:51:22 39° ESE 19:52:11 43° E 19:56:28 10° NNE
Ariane Rocket 3.6 19:50:41 10° S 19:55:39 57° WSW 20:00:41 10° NNW
Cosmos 1092 Rocket 3.9 19:50:25 10° N 19:56:35 69° ENE 20:00:15 26° SSE
Meteor 1-15 Rocket 4.1 19:53:43 10° S 19:59:16 68° E 20:04:58 10° NNE
Resurs 1-3 3.5 19:57:58 34° SSE 19:59:52 86° ENE 20:04:18 10° NNW
Cosmos 2195 Rocket 4.5 19:53:37 10° N 19:59:54 65° ENE 20:03:07 29° SSE
Cosmos 1300 Rocket 4.2 19:56:30 10° SSW 20:00:50 58° WNW 20:05:14 10° N
Cosmos 494 Rocket 3.9 19:58:14 10° NNW 20:03:33 81° ENE 20:05:36 38° SSE
Cosmos 2026 Rocket 4.1 19:57:47 10° N 20:04:05 61° ENE 20:06:55 33° SE
CZ-2C R/B 3.7 20:00:47 10° NNE 20:05:09 52° E 20:05:30 50° ESE
Meteor 2-13 Rocket 4.4 19:59:06 10° N 20:05:19 81° E 20:09:01 26° SSE
Cosmos 2298 Rocket 3.9 20:00:04 10° SSW 20:05:24 86° ESE 20:10:46 10° NNE
SPOT 3 Rocket 3.4 20:03:38 30° SSE 20:06:14 88° ENE 20:11:25 10° NNW
Cosmos 1833 Rocket 3.6 20:01:18 10° NNW 20:06:23 33° NE 20:07:46 29° ENE
NOSS 3-2 (A) 4.2 20:01:30 10° NW 20:08:54 70° SW 20:13:57 26° SSE
NOSS 2-2 (C) 3.6 20:06:46 10° SW 20:10:17 63° NW 20:14:24 10° NE
Cosmos 1428 Rocket 4.4 20:10:10 10° N 20:16:28 70° ENE 20:18:51 39° SSE
Cosmos 1626 2.6 20:14:55 10° N 20:17:51 48° NNE 20:17:51 48° NNE
Terra 3.5 20:19:12 19° NE 20:19:12 19° NE 20:22:06 10° NNE
Cosmos 1892 Rocket 4.1 20:16:28 10° N 20:20:06 43° NE 20:20:06 43° NE
CREW DRAGON DEMO-1 DEB 4.2 20:17:48 10° WNW 20:19:51 39° WNW 20:19:51 39° WNW
Cosmos 2279 Rocket 4.3 20:20:50 42° E 20:21:13 42° E 20:27:03 10° NNE
USA 234 3.2 20:19:45 10° ENE 20:26:16 63° SE 20:32:45 10° SW
Meteor 2-5 Rocket 3.7 20:22:49 10° NNW 20:28:27 82° W 20:30:35 41° S
OBJECT-B 2.6 20:34:35 27° WSW 20:34:51 27° W 20:37:42 10° NW
Cosmos 1805 3.6 20:35:56 64° WNW 20:35:56 64° WNW 20:39:44 10° N
SPOT 5 3.8 20:40:10 38° NE 20:40:10 38° NE 20:44:39 10° N
NOSS 3-2 (C) 4.2 20:35:38 10° NW 20:43:02 68° SW 20:46:11 40° SSE
Cosmos 1674 4.4 20:40:13 10° NNW 20:43:36 30° W 20:44:32 26° WSW
Meteor 1-22 Rocket 4.2 20:43:04 56° S 20:44:21 79° E 20:50:25 10° NNE
Cosmos 1125 Rocket 3.7 20:41:00 10° SSW 20:46:18 72° WNW 20:51:39 10° NNE
Cosmos 2082 Rocket 3.0 20:41:09 10° NNW 20:46:21 37° NE 20:46:33 37° NE
Okean 1-7 Rocket 4.2 20:43:04 10° N 20:46:41 50° NNE 20:46:41 50° NNE
Cosmos 1733 4.5 20:52:17 38° NNW 20:52:17 38° NNW 20:54:51 10° N
SL-14 R/B 4.2 20:48:38 10° NNW 20:51:36 46° NW 20:51:36 46° NW
COSMOS 2406 3.0 20:48:26 10° NNW 20:54:09 79° ENE 20:54:20 78° E
Meteor 1-24 Rocket 3.9 20:49:52 10° NNW 20:55:17 65° W 20:56:23 53° SSW
ERS-1 Rocket 3.4 20:57:24 50° NNE 20:57:24 50° NNE 21:01:33 10° N
CRYOSAT 2 4.4 20:52:15 10° N 20:57:03 78° WNW 20:57:03 78° WNW
Resurs 01 Rocket 2.6 20:56:51 39° WSW 20:57:22 40° W 21:01:36 10° NNW
Cosmos 2098 Rocket 4.0 20:56:08 10° N 21:03:26 69° ENE 21:03:50 68° E
Lacrosse 4 Rocket 3.1 20:59:53 10° NNW 21:02:11 26° N 21:02:11 26° N
Landsat 7 4.1 21:04:40 65° WNW 21:04:40 65° WNW 21:09:03 10° NNW
Cosmos 2266 Rocket 4.1 21:00:04 10° N 21:05:35 56° NE 21:05:35 56° NE
Exosat Rocket 4.1 21:01:37 10° SW 21:06:57 56° WNW 21:11:54 10° NNE
ATLAS 2AS CENTAUR R/B 2.9 21:04:29 10° SSW 21:12:19 65° SE 21:20:05 10° NE
Cosmos 1655 Rocket 3.8 21:06:10 10° N 21:12:27 81° E 21:12:30 81° E
SPOT 1/Viking Rocket 3.7 21:14:24 69° WNW 21:14:24 69° WNW 21:19:12 10° NNW
ARIANE 5 R/B 3.7 21:15:16 41° WNW 21:15:16 41° WNW 21:18:47 10° NNW
Cosmos 2278 Rocket 4.1 21:22:34 19° NE 21:22:34 19° NE 21:24:06 10° NE
Cosmos 1844 4.4 21:13:13 10° SW 21:18:47 52° NW 21:24:19 10° NNE
CENTAUR R/B 3.8 21:15:45 10° NW 21:23:25 48° WSW 21:25:44 40° SSW
Spot 2 Rocket 4.2 21:28:19 47° W 21:28:19 47° W 21:32:45 10° NNW
ATLAS 3B R/B 2.6 21:23:05 10° NW 21:29:57 87° SW 21:30:03 87° S
Cosmos 1844 Rocket 4.0 21:25:33 10° WSW 21:30:42 37° NW 21:35:55 10° NNE
Lacrosse 5 rocket 3.2 21:27:48 10° WNW 21:30:51 32° NNW 21:30:51 32° NNW
Cosmos 909 Rocket 4.1 21:40:58 10° NW 21:46:53 72° NW 21:46:53 72° NW
Cosmos 1833 Rocket 3.5 21:45:06 10° NW 21:49:28 47° WNW 21:49:28 47° WNW
Terra 3.4 21:58:07 33° NNW 21:58:07 33° NNW 22:00:46 10° NNW
USA 234 3.5 22:02:53 10° ENE 22:09:19 64° NNW 22:15:47 10° W
Cosmos 2082 Rocket 3.7 22:25:13 10° NW 22:28:23 31° WNW 22:28:23 31° WNW
NOSS 3-4 (A) 4.4 22:41:29 44° N 22:41:29 44° N 22:46:38 10° NE
NOSS 3-4 (C) 4.4 22:41:40 43° N 22:41:40 43° N 22:46:44 10° NE
CZ-4C R/B 4.4 23:02:00 19° NE 23:02:00 19° NE 23:03:48 10° NE
Cosmos 2278 Rocket 3.8 23:04:22 31° NNW 23:04:22 31° NNW 23:08:08 10° NNE
ATLAS 2AS CENTAUR R/B 3.7 22:59:08 25° W 23:03:44 50° NNW 23:11:15 10° NE
NOSS 3-1 (C) 4.4 23:22:17 10° NW 23:28:49 54° NNE 23:28:49 54° NNE
USA 234 4.1 23:45:38 10° ENE 23:54:28 33° NW 23:58:07 10° WNW
